CAPE
232 303 589 651 356 183 96 385 344 343 311 249 212 66 4 20 73 43 139 156 507 774 753 647 506 711 764 838 886 721 301 278 504 653 638 648 712 756 961 1013 909 1010 1150
858 883 581 585 618 472 201 79 243 252 234 356 161 258 49 83 95 72 22 85 420 984 974 940 786 708 717 648 644 614 669 371 318 572 523 702 542 669 618 552 871 991 924
1063 1066 891 741 611 633 594 276 514 416 182 217 186 194 258 101 100 88 27 29 126 564 759 775 882 971 747 736 788 607 745 511 599 312 366 692 615 601 430 763 692 834 952
1332 808 1033 1124 337 755 668 452 719 250 142 115 69 23 196 150 100 93 61 76 33 156 513 779 614 517 590 567 556 501 468 469 578 590 571 354 356 566 691 594 558 543 606
1218 1070 984 978 1199 1051 665 743 673 265 202 163 106 33 193 238 167 82 84 99 88 80 47 83 50 156 364 554 556 677 562 488 468 410 447 648 676 486 576 477 456 471 444
1094 214 525 1019 1170 888 592 537 325 612 144 133 194 152 154 145 100 63 55 87 143 138 97 80 43 25 31 102 315 357 163 226 343 392 359 459 375 362 512 591 598 572 458
1619 1109 2 1137 920 1022 919 288 847 219 323 240 154 51 81 100 129 278 177 138 93 97 95 89 75 26 9 77 97 28 24 139 154 323 331 280 296 376 331 353 327 279 262
1779 1366 1199 1246 594 28 976 425 300 424 210 278 126 107 62 74 140 175 172 129 207 331 318 193 227 90 26 59 2 112 198 231 228 166 91 303 394 347 381 265 79 5 0
1664 381 735 1288 1142 1162 1130 416 396 612 235 336 175 48 31 1 77 161 250 269 287 181 203 208 171 95 82 88 45 8 0 0 0 13 22 76 87 21 0 0 0 0 0
2369 1581 1754 1884 1715 1513 1201 511 146 764 697 326 447 249 183 7 0 36 159 308 231 252 111 94 86 79 9 0 0 0 0 0 0 0 0 0 0 0 0 0 0 0 0
2322 2290 2088 1809 2062 1641 1280 364 242 325 729 338 153 483 228 104 1 0 0 93 117 51 9 0 0 0 0 0 0 0 0 0 0 0 0 0 0 0 0 0 0 0 5
1101 1912 2292 2005 1970 1593 1070 636 452 432 555 588 447 140 210 137 180 53 31 0 0 0 0 0 0 0 0 0 0 0 0 0 0 0 0 0 0 0 0 0 0 0 0
1108 1270 1987 1976 1431 1888 1639 1067 658 524 481 208 535 73 259 80 229 100 123 13 0 0 0 0 0 0 0 0 0 0 0 0 0 0 0 0 0 0 0 0 0 0 0
1853 1863 2107 1794 2092 2042 2036 1491 1200 740 772 481 100 150 8 88 179 119 198 80 7 7 2 0 0 0 0 0 0 0 0 0 0 0 0 0 0 0 0 0 0 0 0
1775 994 1252 1826 2237 2193 2073 1986 1486 1190 862 660 310 0 0 0 0 0 140 86 17 1 0 0 0 0 0 0 0 0 0 0 0 0 0 0 0 0 0 0 0 0 0
1580 1040 1449 1873 2436 2526 2286 2031 1758 1324 843 441 152 0 0 0 0 0 219 117 14 0 0 5 0 0 0 0 0 0 0 0 0 0 0 0 0 0 0 0 0 0 0
2354 1994 2281 2396 2455 2489 2357 2096 1868 1811 1429 722 404 181 177 2 0 0 0 11 67 28 7 5 0 0 0 0 0 0 0 0 0 0 0 0 0 0 0 0 0 0 0
2180 2333 2805 2639 2683 2888 2406 2085 1953 1858 1692 1115 631 328 218 25 0 0 0 0 0 0 20 66 1 0 0 0 0 0 0 0 0 0 0 0 0 0 0 0 0 0 0
2326 2419 2525 2692 2656 2536 2988 2734 2347 2141 1862 512 266 98 37 39 74 22 4 0 0 0 0 40 17 0 0 0 0 0 0 0 0 0 0 0 0 0 0 0 0 0 0
2791 2592 2630 2742 2810 2882 2880 2841 2915 2328 401 3 3 0 0 0 2 37 48 16 0 0 0 8 10 0 0 0 0 0 0 0 0 0 0 0 0 0 0 0 0 0 0
2926 2815 2912 3102 3287 3207 3102 2962 2780 648 0 0 0 8 2 0 0 35 46 18 21 0 0 0 2 0 0 0 0 0 0 0 0 0 0 0 0 0 0 0 0 0 0
2796 2816 2735 2974 2969 2980 2894 2007 524 1 0 0 0 32 0 0 0 0 10 32 50 29 0 0 16 54 33 2 0 0 0 0 0 0 0 0 0 0 0 0 0 0 0
3253 3098 2916 2869 2719 2645 2706 1853 741 502 70 0 0 0 0 0 0 0 0 8 51 0 0 0 10 8 63 61 0 0 0 0 0 0 0 0 0 0 0 0 0 0 0
3393 3424 3272 3037 2835 2682 2365 2056 1775 778 525 382 0 0 1 0 0 0 0 0 2 0 0 0 5 7 28 46 2 0 0 0 0 0 0 0 0 0 0 0 0 0 0
1461 1138 1524 1595 1019 1370 2224 1565 1151 761 849 927 477 45 2 0 0 0 0 0 0 11 3 8 0 0 0 0 8 0 0 0 0 0 0 0 0 0 0 0 0 0 0
916 1606 1067 1240 1212 1119 1305 1149 836 878 741 562 547 423 205 85 2 0 0 0 0 3 0 1 0 0 0 0 29 0 0 0 0 0 0 0 0 0 0 0 0 0 0
CIN
-105 -96 -51 -35 -30 -66 -98 -40 -23 -31 -32 -20 -20 -41 -23 -58 -50 -72 -72 -36 -13 -10 -7 -5 -4 0 0 0 0 0 -15 -14 -1 -2 0 -1 -1 0 -1 0 0 -1 -1
-35 -27 -28 -37 -39 -46 -69 -74 -39 -28 -26 -15 -19 -32 -48 -46 -62 -84 -86 -53 -17 -2 -1 0 0 0 0 0 0 -1 0 -4 -9 0 -3 -1 -3 -2 -3 -8 -1 -1 -1
-15 -11 -31 -42 -48 -47 -41 -73 -34 -29 -38 -38 -37 -54 -35 -49 -44 -57 -78 -74 -48 -13 -6 -3 -1 0 0 0 0 -1 0 -1 0 -9 -9 -1 -2 -2 -10 -1 -1 0 -1
-27 -21 -25 -28 -45 -30 -32 -64 -13 -40 -44 -44 -41 -58 -31 -17 -42 -47 -71 -60 -78 -45 -11 -2 -2 -2 -1 0 0 0 -2 -2 -2 -2 -1 -9 -15 -2 -2 -3 -3 -5 -5
-32 -33 -41 -39 -23 -11 -29 -16 -28 -41 -46 -58 -66 -76 -22 -12 -96 -68 -52 -41 -43 -43 -42 -21 -27 -9 -4 -1 0 -1 -1 -1 -2 -5 -4 -2 -2 -4 -3 -5 -6 -5 -5
-40 -126 -99 -45 -10 -18 -20 -21 -31 -43 -68 -76 -42 -21 -18 -21 -22 -53 -69 -54 -44 -51 -25 -23 -43 -58 -18 -5 -2 -5 -12 -6 -4 -2 -3 -2 -5 -7 -2 -3 -2 -2 -4
-27 -44 -43 -42 -35 -34 -26 -42 -30 -30 -49 -65 -79 -43 -16 -20 -23 -23 -41 -66 -56 -48 -39 -34 -35 -50 -26 -5 -9 -46 -33 -26 -12 -2 -3 -8 -12 -6 -4 -4 -7 -15 -14
-28 -66 -63 -43 -50 -24 -41 -28 -39 -27 -43 -54 -55 -47 -34 -26 -31 -34 -45 -62 -36 -20 -17 -30 -18 -21 -62 -23 -3 -19 -4 -3 -4 -8 -20 -6 -7 -4 0 -4 -41 -17 0
-48 -87 -72 -35 -37 -44 -31 -43 -40 -30 -37 -30 -63 -53 -41 -6 -35 -33 -33 -38 -35 -47 -25 -19 -33 -38 -26 -16 -51 -68 0 0 0 -57 -21 -12 -12 -12 0 0 0 0 0
-13 -25 -34 -18 -18 -25 -17 -30 -65 -26 -18 -16 -26 -35 -58 -58 0 -53 -41 -27 -31 -29 -47 -52 -63 -46 -8 -1 0 0 0 0 0 0 0 0 0 0 0 0 0 0 0
-8 -5 -10 -21 -19 -29 -27 -61 -38 -30 -26 -42 -49 -32 -41 -46 -5 0 0 -37 -30 -46 -27 0 0 0 0 0 0 0 0 0 0 0 0 0 0 0 0 0 0 0 -2
-55 -58 -25 -27 -23 -38 -45 -51 -55 -47 -41 -38 -47 -60 -31 -36 -36 -80 -66 -4 0 0 0 0 0 0 0 0 0 0 0 0 0 0 0 0 0 0 0 0 0 0 0
-61 -65 -42 -30 -44 -26 -37 -57 -58 -61 -66 -66 -36 -54 -52 -41 -36 -65 -37 -62 0 0 0 0 0 0 0 0 0 0 0 0 0 0 0 0 0 0 0 0 0 0 0
-37 -58 -45 -48 -35 -23 -17 -45 -51 -57 -49 -65 -108 -68 -113 -68 -68 -63 -37 -63 -39 -40 -24 0 0 0 0 0 0 0 0 0 0 0 0 0 0 0 0 0 0 0 0
-45 -91 -83 -69 -40 -23 -20 -32 -51 -57 -70 -81 -98 0 0 0 0 0 -46 -54 -34 -4 0 0 0 0 0 0 0 0 0 0 0 0 0 0 0 0 0 0 0 0 0
-46 -88 -71 -62 -25 -17 -25 -43 -53 -71 -100 -138 -166 0 0 0 0 0 -34 -49 -52 0 0 -53 0 0 0 0 0 0 0 0 0 0 0 0 0 0 0 0 0 0 0
-28 -40 -38 -26 -24 -20 -32 -50 -60 -55 -73 -117 -125 -148 -127 -15 0 0 0 -10 -53 -38 -14 -50 0 0 0 0 0 0 0 0 0 0 0 0 0 0 0 0 0 0 0
-22 -19 -13 -14 -16 -15 -43 -61 -64 -41 -36 -65 -77 -83 -83 -145 0 0 0 0 0 0 -26 -37 -82 0 0 0 0 0 0 0 0 0 0 0 0 0 0 0 0 0 0
-35 -31 -29 -30 -33 -37 -18 -31 -40 -32 -20 -129 -189 -216 -236 -213 -135 -140 -103 0 0 0 0 -81 -53 0 0 0 0 0 0 0 0 0 0 0 0 0 0 0 0 0 0
-17 -30 -34 -31 -28 -31 -20 -9 -5 -13 -149 -172 -195 0 0 0 -88 -52 -50 -100 0 0 0 -48 -92 0 0 0 0 0 0 0 0 0 0 0 0 0 0 0 0 0 0
-8 -8 -6 -5 -4 -6 -5 -7 -7 -93 0 0 0 -40 -110 0 0 -272 -99 -70 -95 0 0 0 -20 0 0 0 0 0 0 0 0 0 0 0 0 0 0 0 0 0 0
-26 -16 -11 -6 -7 -6 -4 -32 -137 -4 0 0 0 -218 0 0 0 0 -157 -67 -129 -65 0 0 -70 -66 -71 -97 0 0 0 0 0 0 0 0 0 0 0 0 0 0 0
-20 -21 -20 -16 -17 -18 -15 -45 -156 -211 -269 0 0 0 0 0 0 0 0 -169 -49 0 0 0 -89 -82 -54 -80 0 0 0 0 0 0 0 0 0 0 0 0 0 0 0
-13 -9 -9 -9 -9 -12 -12 -37 -51 -148 -167 -187 0 0 -165 0 0 0 0 0 -87 0 0 0 -89 -120 -35 -113 -65 0 0 0 0 0 0 0 0 0 0 0 0 0 0
-57 -61 -48 -32 -45 -34 -17 -29 -65 -120 -125 -89 -169 -339 -80 0 0 0 0 0 -54 -210 -246 -233 0 0 0 0 -169 0 0 0 0 0 0 0 0 0 0 0 0 0 0
-70 -45 -47 -37 -29 -30 -39 -63 -78 -96 -90 -119 -121 -170 -198 -269 -34 0 0 0 0 -186 0 -52 0 0 0 0 -156 0 0 0 0 0 0 0 0 0 0 0 0 0 0
Wind_Speed
18 17 17 18 18 19 19 17 18 18 18 19 19 20 20 22 22 17 21 22 22 21 20 20 20 20 21 19 17 12 12 13 12 13 13 13 13 12 11 11 11 12 11
17 17 18 17 18 18 17 18 19 18 19 17 18 18 20 14 18 19 17 17 19 20 21 19 17 16 15 13 13 13 13 12 12 12 13 12 12 13 11 9 9 9 9
16 17 18 17 17 17 18 18 18 18 17 13 10 14 9 18 18 18 17 20 20 20 21 21 20 21 21 20 18 14 12 10 12 11 12 11 12 14 12 9 7 7 7
16 17 17 17 17 17 16 16 16 16 15 16 18 8 5 21 18 18 12 12 14 18 19 19 19 19 18 17 15 13 13 14 14 9 11 10 10 12 8 7 7 6 5
15 16 14 15 15 14 15 16 15 16 15 10 14 10 22 20 16 13 17 12 14 15 17 16 16 16 17 17 11 7 13 15 15 11 8 13 11 15 12 8 10 10 5
18 17 15 15 17 21 18 17 16 15 17 19 14 15 11 22 21 18 19 17 14 8 8 19 19 21 18 14 14 12 16 5 13 15 18 19 16 18 13 10 8 6 9
18 17 16 17 17 18 18 17 18 16 16 18 20 19 21 21 21 21 20 19 20 22 22 10 21 17 17 14 15 19 19 18 14 14 16 18 19 16 15 9 10 11 12
16 16 16 15 16 15 17 16 15 15 15 18 20 20 18 18 20 20 18 19 19 19 20 19 17 15 14 12 13 12 10 10 9 9 17 18 8 7 6 6 9 9 12
17 16 16 16 15 13 15 15 15 15 15 18 14 14 15 14 16 17 17 17 17 17 17 17 16 15 13 13 11 11 10 10 10 10 13 14 12 12 12 8 14 22 19
15 15 16 16 15 16 15 15 18 15 16 16 15 15 13 15 13 13 14 17 16 16 16 15 14 12 11 10 10 11 11 10 10 10 11 12 12 13 14 19 21 21 18
14 14 15 16 16 15 16 17 19 18 13 13 16 14 16 16 16 13 14 15 15 16 14 14 13 13 11 11 11 11 11 11 11 11 11 12 12 13 15 17 19 20 21
13 15 14 15 15 16 15 16 17 15 15 15 14 16 17 17 17 14 13 15 14 15 14 14 13 12 12 12 11 12 12 12 11 11 11 12 13 14 15 17 18 20 21
12 15 14 14 15 15 15 15 15 16 14 12 11 15 15 15 13 12 12 15 13 11 9 11 12 11 12 12 12 12 12 11 11 12 12 12 13 14 15 17 19 20 21
11 13 14 13 14 14 15 15 14 13 14 10 10 9 9 10 10 9 9 9 9 8 7 8 9 10 11 11 11 12 11 11 11 11 11 11 12 13 15 16 18 20 21
12 12 13 11 12 13 13 13 13 13 12 11 9 9 8 8 8 8 7 7 6 7 8 6 5 6 8 9 9 10 9 10 9 9 10 10 11 12 14 16 18 20 21
11 11 10 10 10 11 11 11 11 11 10 9 8 7 7 8 9 20 5 6 4 4 4 3 2 4 6 6 7 7 8 8 8 7 8 9 10 12 14 16 18 19 20
13 11 9 8 8 8 8 7 7 7 7 6 7 8 4 8 10 15 12 3 5 3 2 5 2 6 6 6 5 5 5 6 6 5 6 7 9 10 13 15 17 18 19
16 8 6 5 5 4 3 3 3 3 2 3 5 8 11 10 14 13 14 17 14 10 9 4 2 4 6 8 6 6 4 3 4 4 5 5 7 8 11 13 16 17 18
14 10 5 2 1 1 1 2 3 4 10 12 14 17 21 25 26 26 20 18 19 17 17 8 6 1 3 4 3 2 4 3 2 1 3 3 5 7 8 11 13 15 17
9 7 3 1 2 3 5 6 7 10 11 10 13 18 23 27 28 29 26 24 21 20 16 6 3 3 2 2 1 4 4 2 8 7 1 2 4 5 6 9 11 13 15
9 6 7 8 7 7 9 11 12 17 11 16 20 23 15 4 10 8 11 19 27 18 17 10 4 3 4 2 5 0 3 4 6 9 3 3 3 5 6 7 8 10 13
6 8 6 7 7 8 14 25 28 21 24 10 3 5 2 9 4 5 5 15 8 27 17 16 12 8 6 6 4 2 1 2 3 5 3 2 2 3 3 4 5 8 11
5 6 8 11 10 9 17 21 14 6 5 3 10 5 1 6 1 2 4 15 16 14 22 21 18 14 9 8 6 4 4 0 1 3 1 1 1 0 2 3 2 5 8
13 13 14 15 17 18 22 18 15 9 6 4 4 5 3 8 4 4 3 9 15 16 20 20 10 10 14 7 11 11 10 4 3 1 3 4 6 4 5 3 1 1 4
20 22 24 26 27 29 26 17 14 14 10 6 8 10 7 3 2 6 5 4 9 13 15 18 21 29 33 26 9 6 6 2 2 4 3 1 6 9 9 7 3 2 3
24 25 29 29 31 34 26 14 10 13 10 9 9 10 5 5 4 3 5 5 6 13 11 14 21 29 32 34 12 11 7 7 2 8 3 2 3 4 10 10 4 5 5
Wind_Direction
113 122 130 129 126 126 135 118 144 149 154 154 148 154 162 142 140 118 134 134 138 135 129 132 137 141 143 132 122 91 90 103 97 102 109 106 111 99 76 70 75 90 69
117 122 116 126 127 129 129 120 134 148 162 142 144 137 151 104 119 119 114 122 130 134 142 139 134 130 128 119 111 113 112 102 105 106 117 106 119 129 113 85 83 89 79
142 134 113 132 125 131 136 127 127 114 110 94 66 289 84 133 123 118 119 137 140 142 150 150 150 156 158 162 152 132 121 102 120 114 126 119 127 144 136 114 77 78 74
102 141 134 130 119 105 128 131 128 75 126 156 168 13 308 152 118 122 102 100 114 141 147 146 149 153 153 154 142 135 136 145 147 113 131 126 127 148 111 100 106 91 80
184 86 189 134 127 117 116 107 87 60 35 94 309 47 141 129 102 92 114 94 106 120 127 130 140 150 158 159 134 98 138 157 159 142 131 161 145 173 160 137 154 159 114
129 88 158 115 85 54 78 61 51 25 29 46 57 65 80 145 133 121 123 121 103 55 59 154 152 165 153 136 138 137 163 55 156 169 187 192 180 189 172 159 145 134 167
104 83 110 80 52 75 61 62 53 37 29 51 52 54 88 126 153 147 135 130 129 156 173 311 166 140 142 113 116 182 190 182 164 171 184 191 193 185 181 156 168 177 189
60 82 93 84 80 83 63 58 59 46 60 85 63 63 56 67 128 143 117 129 136 144 159 150 138 128 121 112 122 115 75 68 53 27 311 306 10 133 103 72 148 166 187
65 80 87 99 79 88 85 71 86 76 88 111 60 51 52 56 78 103 119 120 119 122 133 131 134 124 113 104 80 66 58 64 66 28 348 341 351 351 360 50 244 254 230
91 99 86 81 81 83 103 122 132 74 102 127 118 144 57 83 52 51 99 117 110 108 97 95 88 82 85 79 68 70 66 60 61 51 20 7 359 354 349 316 299 261 233
104 87 83 86 100 106 131 135 127 127 70 61 125 98 92 94 90 61 69 105 118 115 95 90 78 88 82 65 79 81 80 77 67 56 42 27 14 2 341 328 317 315 303
88 121 99 100 111 118 124 135 140 126 116 114 84 114 112 125 133 103 103 117 111 121 117 104 94 85 100 87 79 86 87 81 69 57 46 35 25 9 351 337 337 337 330
124 124 95 101 113 124 115 118 123 146 120 106 116 131 136 153 137 118 90 126 119 105 71 117 107 87 90 89 82 87 84 75 66 62 55 43 28 11 356 349 343 341 332
117 119 118 110 112 125 118 102 102 113 139 88 96 101 88 92 79 95 101 99 90 98 57 68 111 101 97 88 84 84 76 75 72 65 58 48 32 17 5 356 346 333 331
91 98 121 105 126 132 119 107 107 119 122 109 81 57 54 130 45 45 129 121 97 112 149 117 36 116 104 84 82 82 77 82 77 69 63 52 35 18 7 358 347 338 335
116 113 101 103 115 122 114 98 99 100 103 92 93 84 73 26 351 307 98 132 112 79 113 135 32 120 122 92 89 84 91 87 81 68 56 40 21 9 3 351 351 353 354
134 129 115 99 101 106 107 92 99 108 118 100 67 29 58 13 346 326 333 29 158 145 150 14 343 135 137 126 98 88 89 93 79 74 52 34 25 16 5 348 347 352 354
175 125 88 86 64 84 94 96 132 113 44 54 33 7 359 354 335 323 322 314 310 317 331 337 349 156 154 154 139 130 118 79 82 99 90 55 29 20 10 355 349 352 356
169 158 132 115 119 167 234 243 248 308 339 344 343 340 332 321 310 302 302 303 303 305 307 319 324 242 154 156 139 130 143 126 355 40 114 78 23 15 9 1 354 355 355
156 162 155 177 250 250 260 279 292 313 325 339 344 347 343 326 323 292 297 291 294 292 302 309 309 187 182 145 154 154 158 145 322 331 324 81 31 18 12 359 355 351 354
351 357 344 336 326 306 302 293 292 313 331 336 335 333 358 36 49 49 355 282 278 288 290 285 259 256 206 242 174 114 173 162 324 321 333 343 28 9 2 1 2 1 4
7 352 337 333 322 312 321 320 320 23 8 316 272 176 82 186 72 178 109 166 308 279 276 284 276 252 245 237 213 180 93 36 333 312 310 315 349 3 9 7 11 4 6
80 43 20 4 353 341 339 336 347 345 338 283 233 250 263 205 42 97 111 184 197 199 283 275 276 284 274 261 225 210 184 359 354 350 218 262 332 274 342 345 27 6 6
42 33 20 12 2 355 345 348 353 355 343 321 302 335 301 220 201 186 103 166 192 192 188 182 194 285 295 311 191 189 185 184 357 108 171 319 319 314 321 305 200 25 11
357 355 350 345 345 340 343 353 354 354 353 334 344 345 347 230 252 197 184 158 182 185 178 184 189 208 246 277 176 186 188 174 332 329 172 219 339 326 316 310 276 209 346
348 346 336 340 335 329 346 354 358 3 1 2 359 347 335 334 318 244 201 199 195 192 185 186 196 209 223 233 193 193 197 195 257 325 307 286 355 356 331 315 282 300 319